Regional Weather Roundup
Issued by NWS Charleston, SC

Current Version | Previous Version | Graphics & Text | Print | Product List | Glossary On
Versions: 1 2 3 4 5 6 7 8 9 10 11 12 13 14 15 16 17 18 19 20 21 22 23 24 25 26 27 28 29 30 31 32 33 34 35 36 37 38 39 40 41 42 43 44 45 46 47 48 49 50
000
ASUS42 KCHS 041112
RWRCHS

REGIONAL WEATHER ROUNDUP
NATIONAL WEATHER SERVICE CHARLESTON SC
700 AM EDT TUE AUG 04 2015

NOTE: "FAIR" INDICATES FEW OR NO CLOUDS BELOW 12,000 FEET WITH NO
SIGNIFICANT WEATHER AND/OR OBSTRUCTIONS TO VISIBILITY.

NOT ALL STATIONS ARE QUALITY CONTROLLED BY THE NATIONAL
WEATHER SERVICE. USE DATA WITH CAUTION...ESPECIALLY
DEWPOINT OBSERVATIONS.

SCZ027-030-031-034>040-042>050-041200-
...SOUTHEAST SOUTH CAROLINA...

CITY           SKY/WX    TMP DP  RH WIND       PRES   REMARKS
N CHARLESTON   NOT AVBL
WATERFRONT PRK   N/A     77  76  97 VRB2      29.86R
MOUNT PLEASANT CLOUDY    77  75  94 W3        29.89R
JOHNS ISLAND   CLOUDY    77  77 100 W5        29.91R
PINOPOLIS      NOT AVBL
MONCKS CORNER  PTSUNNY   77  73  88 CALM      29.90S
SUMMERVILLE    CLOUDY    73  73 100 NW3       29.92R
BEAUFORT MCAS  CLOUDY    76  75  97 W7        29.93R FOG
BEAUFORT ARPT  CLOUDY    77  77 100 CALM      29.93R
HILTON HEAD IS CLOUDY    75  73  94 SW6       29.95R FOG
WALTERBORO     FOG       75  73  94 NW6       29.94R VSB 3/4
ALLENDALE      FOG       73  73 100 NW3       29.94R VSB<1/4

...SOUTHERN MIDLANDS AND PEE DEE...

CITY           SKY/WX    TMP DP  RH WIND       PRES   REMARKS
GEORGETOWN     NOT AVBL
KINGSTREE      NOT AVBL
ORANGEBURG     CLOUDY    75  73  93 N3        29.95R
BARNWELL       FOG       73  73 100 CALM      29.96R VSB<1/4
AIKEN          FAIR      70  68  94 NE3       30.01R
MANNING        HVY RAIN  72  72 100 N3        29.93R VSB 1
COLUMBIA       MOCLDY    75  71  87 N5        29.96R
SUMTER         CLOUDY    75  73  94 N7        29.94R
FLORENCE       MOCLDY    75  73  93 NE7       29.95R
MYRTLE BEACH   MOCLDY    77  70  78 S20G29    29.95S
N MYRTLE BEACH LGT RAIN  79  76  90 SE15G22   29.94S

$$

GAZ063-065-086>088-099>101-113>116-118-119-134>141-150-041200-
...SOUTHEAST GEORGIA...

CITY           SKY/WX    TMP DP  RH WIND       PRES   REMARKS
SAVANNAH ARPT  FOG       75  74  96 W5        29.95R VSB 1/2
HUNTER AAF     CLOUDY    75  75 100 NW3       29.92R VSB 1
FORT STEWART   NOT AVBL
STATESBORO     FOG       74  32  21 CALM      29.96R VSB 1/4
SYLVANIA       FOG       75  75 100 NW3       29.96R VSB 1/2
CLAXTON        NOT AVBL

...CSRA...CENTRAL AND FAR SOUTHEAST GEORGIA...

CITY           SKY/WX    TMP DP  RH WIND       PRES   REMARKS
THOMSON        CLEAR     72  72 100 CALM      30.03R
AUGUSTA-BUSH   CLEAR     73  71  93 NW6       29.95R
AUGUSTA-DANIEL CLEAR     74  71  91 N7        29.97R
SWAINSBORO     FOG      N/A N/A N/A CALM      29.97R VSB 1/4
VIDALIA        FOG       73  73 100 N3        29.96R VSB 1
EASTMAN        FOG       71  71 100 CALM      29.99R VSB 1/4
HAZLEHURST     FOG       75  75 100 CALM      29.96R VSB<1/4
ALMA           FOG       75  74  96 CALM      29.96R VSB 1/4
WAYCROSS       PTCLDY    77  77 100 CALM      29.96R FOG
JESUP          FOG       79  77  94 CALM      29.96R VSB<1/4
BAXLEY         FOG       77  75  94 CALM      29.96R VSB 1
BRUNSWICK      CLOUDY    77  75  94 W6        29.95R
SAINT SIMONS   CLOUDY    78  75  90 SW7       29.94R

$$

SCZ027-028-034-036>038-045-046-048>050-GAZ119-141-041200-
...LAKE AND SUPPLEMENTAL COASTAL OBSERVATIONS...

STATION/POSITION TIME  TEMP    WIND        PRES    WAVE   SWELL
                       AIR SEA DIR/SP/G            HT/PER HT/PER/DIR
                 (UTC) (F)     (DEG/KT/KT) (MB)    (FT/S) (FT/S/D)
UPR LAKE MARION  NOT AVBL
WINYAH BAY       0945   75     180/  9     1011.0
LAKE MURRAY      1000   74     350/  3/  6 1013.9R
ACE BASIN NERRS  NOT AVBL
FORT PULASKI     1000   76 85  280/  9/ 10 1013.4R
SAPELO ISLAND    1000   79     250/  5     1013.0S

$$

ANZ835-935-AMZ111-154-330-350-352-354-370-450-454-472-041200-
...C-MAN AND BUOY OBSERVATIONS...

STATION/POSITION TIME  TEMP    WIND        PRES    WAVE   SWELL
                       AIR SEA DIR/SP/G            HT/PER HT/PER/DIR
                 (UTC) (F)     (DEG/KT/KT) (MB)    (FT/S) (FT/S/D)
BUOY 41004       1050   82 83  200/ 21/ 25 1011.5R   8/ 7
BUOY 41008       1050   81 83  250/ 10/ 12 1013.9R   3/ 7   3/120/ 7
FOLLY BEACH CMAN 1000   78     270/  4/  6 1011.9R
CAPERS NEARSHORE 1008   81     250/ 19/ 31 1011.8R
FRIPP NEARSHORE  1000   79     310/  8/ 10 1012.7R


STATION/POSITION TIME  TEMP    WIND        PRES    WAVE   SWELL
                       AIR SEA DIR/SP/G            HT/PER HT/PER/DIR
                 (UTC) (F)     (DEG/KT/KT) (MB)    (FT/S) (FT/S/D)
5E ST. MARYS GA  1021      82                N/A     3/ 5   2/110/11
FRYING PAN BUOY  1050   83 82  160/ 19/ 23 1014.7F   6/ 7   2/140/11
BUOY 41025       1050   83 84  210/ 16/ 17 1016.4R   4/ 6   2/170/ 7
CAPE LOOKOUT NC  1000   80     200/ 10/ 14 1015.5R
BUOY 41002       1050   81 81  190/ 12/ 14 1018.5R   5/ 7   3/210/ 7
BUOY 41010       1020   83 84  190/ 12/ 14 1017.3R
ST AUGUSTINE FL  1100   76 77  200/  7/  9 1016.2R


$$



USA.gov is the U.S. government's official web portal to all federal, state and local government web resources and services.